User: anonymous   Login
Location: Unspecified
(0.0000°N, 0.0000°E)
Time: 07:04:40
(UTC+00:00)
Language:

Oscar 15 - Orbit

View from above orbital plane
View from above orbital plane
View from above satellite
View from above satellite

Ground track
Ground track

The orbit data is extracted from the following two-line orbital elements,

1 20438U 90005C   18048.50064628 -.00000023 +00000-0 +85127-5 0  9997
2 20438 098.7461 002.1814 0008993 232.3445 245.4379 14.31007820465366
Epoch (UTC): 17 February 2018 12:00:55
Eccentricity: 0.0008993
inclination: 98.7461°
perigee height: 782 km
apogee height: 795 km
right ascension of ascending node: 2.1814°
argument of perigee: 232.3445°
revolutions per day: 14.31007820
mean anomaly at epoch: 245.4379°
orbit number at epoch: 46536

The dashed part of the orbit path shows where the satellite is in the earth's shadow,  

DLR